When you browse on this site, cookies collect data to enhance your experience and personalize the content and advertising you see.
Visit our Privacy Policy to learn more. By continuing to use the site, you agree to this use of cookies and data.
  • In Hungary
  • List of Countries
  • For 7 days
  • Water Temperature
  • Weather Map
  • News
  • Weather Widgets
  • user-avatar
    Login

    Hourly Weather Svetlyy

    Today, 29 January, Wednesday

    Time Temperature Precipitation Wind Pressure Humidity
    00:00 -9°C° 0 mm 3 mps 742 mmHg 94%
    01:00 -8°C° 0.3 mm 2 mps 742 mmHg 95%
    02:00 -8°C° 0.3 mm 2 mps 742 mmHg 95%
    03:00 -8°C° 0.3 mm 2 mps 741 mmHg 96%
    04:00 -7°C° 0.2 mm 1 mps 741 mmHg 96%
    05:00 -7°C° 0.2 mm 1 mps 741 mmHg 96%
    06:00 -7°C° 0 mm 2 mps 741 mmHg 97%
    07:00 -7°C° 0.1 mm 2 mps 742 mmHg 96%
    08:00 -8°C° 0.1 mm 2 mps 742 mmHg 96%
    09:00 -9°C° 0.1 mm 3 mps 743 mmHg 95%
    10:00 -10°C° 0.1 mm 3 mps 744 mmHg 94%
    11:00 -12°C° 0.1 mm 4 mps 745 mmHg 93%
    12:00 -12°C° 0.1 mm 4 mps 746 mmHg 91%
    13:00 -15°C° 0.1 mm 5 mps 748 mmHg 91%
    14:00 -17°C° 0.1 mm 5 mps 749 mmHg 91%
    15:00 -19°C° 0.1 mm 5 mps 750 mmHg 91%
    16:00 -20°C° 0.1 mm 5 mps 752 mmHg 92%
    17:00 -20°C° 0.1 mm 5 mps 753 mmHg 92%
    18:00 -21°C° 0.1 mm 5 mps 754 mmHg 92%
    19:00 -22°C° 0.1 mm 4 mps 755 mmHg 93%
    20:00 -23°C° 0.1 mm 4 mps 756 mmHg 93%
    21:00 -23°C° 0.1 mm 4 mps 757 mmHg 93%
    22:00 -24°C° 0.1 mm 4 mps 757 mmHg 94%
    23:00 -24°C° 0.1 mm 4 mps 758 mmHg 94%

    Tomorrow, 30 January, Thursday

    Time Temperature Precipitation Wind Pressure Humidity
    00:00 -24°C° 0.1 mm 4 mps 758 mmHg 94%
    01:00 -25°C° 0.1 mm 4 mps 759 mmHg 94%
    02:00 -25°C° 0.1 mm 4 mps 759 mmHg 95%
    03:00 -25°C° 0.1 mm 4 mps 760 mmHg 95%
    04:00 -25°C° 0 mm 3 mps 760 mmHg 95%
    05:00 -25°C° 0 mm 3 mps 761 mmHg 95%
    06:00 -26°C° 0 mm 3 mps 762 mmHg 95%
    07:00 -27°C° 0 mm 3 mps 762 mmHg 96%
    08:00 -29°C° 0 mm 3 mps 762 mmHg 96%
    09:00 -30°C° 0 mm 3 mps 763 mmHg 97%
    10:00 -30°C° 0 mm 3 mps 763 mmHg 96%
    11:00 -29°C° 0 mm 3 mps 763 mmHg 95%
    12:00 -29°C° 0 mm 3 mps 763 mmHg 94%
    13:00 -29°C° 0 mm 3 mps 763 mmHg 94%
    14:00 -27°C° 0 mm 3 mps 763 mmHg 93%
    15:00 -27°C° 0 mm 3 mps 763 mmHg 93%
    16:00 -27°C° 0 mm 3 mps 763 mmHg 94%
    17:00 -29°C° 0 mm 3 mps 762 mmHg 94%
    18:00 -29°C° 0 mm 3 mps 762 mmHg 95%
    19:00 -29°C° 0 mm 3 mps 762 mmHg 95%
    20:00 -29°C° 0 mm 3 mps 762 mmHg 95%
    21:00 -27°C° 0 mm 2 mps 762 mmHg 95%
    22:00 -27°C° 0 mm 2 mps 762 mmHg 96%
    23:00 -27°C° 0 mm 2 mps 762 mmHg 96%

    Day after tomorrow, 31 January, Friday

    Time Temperature Precipitation Wind Pressure Humidity
    00:00 -27°C° 0 mm 2 mps 762 mmHg 97%
    01:00 -28°C° 0 mm 2 mps 762 mmHg 98%
    02:00 -29°C° 0 mm 2 mps 762 mmHg 98%
    03:00 -29°C° 0 mm 2 mps 762 mmHg 99%
    04:00 -28°C° 0 mm 1 mps 762 mmHg 99%
    05:00 -28°C° 0 mm 1 mps 762 mmHg 99%
    06:00 -29°C° 0 mm 1 mps 762 mmHg 99%
    07:00 -29°C° 0 mm 1 mps 762 mmHg 99%
    08:00 -29°C° 0 mm 1 mps 762 mmHg 99%
    09:00 -29°C° 0 mm 1 mps 762 mmHg 98%
    10:00 -28°C° 0 mm 1 mps 762 mmHg 97%
    11:00 -25°C° 0 mm 1 mps 762 mmHg 96%
    12:00 -24°C° 0 mm 1 mps 762 mmHg 95%
    13:00 -23°C° 0 mm 1 mps 762 mmHg 95%
    14:00 -22°C° 0 mm 1 mps 762 mmHg 95%
    15:00 -22°C° 0 mm 1 mps 762 mmHg 95%
    16:00 -23°C° 0 mm 1 mps 762 mmHg 96%
    17:00 -25°C° 0 mm 1 mps 762 mmHg 97%
    18:00 -27°C° 0 mm 1 mps 762 mmHg 99%
    19:00 -26°C° 0 mm 0 mps 762 mmHg 99%
    20:00 -26°C° 0 mm 0 mps 762 mmHg 99%
    21:00 -27°C° 0 mm 0 mps 762 mmHg 99%
    22:00 -27°C° 0 mm 0 mps 762 mmHg 99%
    23:00 -27°C° 0 mm 0 mps 762 mmHg 99%

    1 February, Saturday

    Time Temperature Precipitation Wind Pressure Humidity
    00:00 -28°C° 0 mm 0 mps 762 mmHg 99%
    01:00 -28°C° 0 mm 0 mps 762 mmHg 99%
    02:00 -28°C° 0 mm 0 mps 762 mmHg 99%
    03:00 -28°C° 0 mm 0 mps 762 mmHg 99%
    04:00 -28°C° 0 mm 0 mps 762 mmHg 99%
    05:00 -28°C° 0 mm 0 mps 762 mmHg 99%
    06:00 -28°C° 0 mm 0 mps 763 mmHg 99%
    07:00 -28°C° 0 mm 0 mps 763 mmHg 98%
    08:00 -28°C° 0 mm 0 mps 763 mmHg 98%
    09:00 -29°C° 0 mm 1 mps 763 mmHg 97%
    10:00 -26°C° 0 mm 0 mps 763 mmHg 95%
    11:00 -24°C° 0 mm 0 mps 763 mmHg 93%
    12:00 -21°C° 0 mm 0 mps 763 mmHg 91%
    13:00 -21°C° 0 mm 0 mps 763 mmHg 91%
    14:00 -20°C° 0 mm 0 mps 763 mmHg 91%
    15:00 -20°C° 0 mm 0 mps 762 mmHg 90%
    16:00 -21°C° 0 mm 0 mps 763 mmHg 92%
    17:00 -23°C° 0 mm 1 mps 763 mmHg 94%
    18:00 -24°C° 0 mm 1 mps 763 mmHg 96%
    19:00 -24°C° 0 mm 1 mps 763 mmHg 96%
    20:00 -24°C° 0 mm 1 mps 763 mmHg 96%
    21:00 -24°C° 0 mm 1 mps 763 mmHg 96%
    22:00 -24°C° 0 mm 1 mps 762 mmHg 96%
    23:00 -24°C° 0 mm 1 mps 762 mmHg 96%

    2 February, Sunday

    Time Temperature Precipitation Wind Pressure Humidity
    00:00 -25°C° 0 mm 1 mps 762 mmHg 95%
    01:00 -25°C° 0 mm 1 mps 762 mmHg 96%
    02:00 -27°C° 0 mm 1 mps 761 mmHg 96%
    03:00 -27°C° 0 mm 1 mps 761 mmHg 96%
    04:00 -27°C° 0 mm 1 mps 761 mmHg 96%
    05:00 -29°C° 0 mm 2 mps 761 mmHg 96%
    06:00 -30°C° 0 mm 2 mps 761 mmHg 96%
    07:00 -30°C° 0 mm 2 mps 761 mmHg 96%
    08:00 -30°C° 0 mm 2 mps 761 mmHg 96%
    09:00 -29°C° 0 mm 2 mps 761 mmHg 96%
    10:00 -28°C° 0 mm 2 mps 761 mmHg 95%
    11:00 -26°C° 0 mm 2 mps 760 mmHg 93%
    12:00 -24°C° 0 mm 2 mps 760 mmHg 92%
    13:00 -24°C° 0 mm 2 mps 760 mmHg 92%
    14:00 -23°C° 0 mm 2 mps 760 mmHg 92%
    15:00 -21°C° 0 mm 2 mps 760 mmHg 92%
    16:00 -24°C° 0 mm 2 mps 760 mmHg 93%
    17:00 -26°C° 0 mm 2 mps 760 mmHg 94%
    18:00 -28°C° 0 mm 2 mps 760 mmHg 95%
    19:00 -28°C° 0 mm 2 mps 760 mmHg 95%
    20:00 -28°C° 0 mm 2 mps 760 mmHg 95%
    21:00 -29°C° 0 mm 2 mps 759 mmHg 95%
    22:00 -29°C° 0 mm 2 mps 759 mmHg 95%
    23:00 -29°C° 0 mm 2 mps 759 mmHg 95%

    3 February, Monday

    Time Temperature Precipitation Wind Pressure Humidity
    00:00 -30°C° 0 mm 2 mps 759 mmHg 95%
    01:00 -30°C° 0 mm 2 mps 759 mmHg 95%
    02:00 -32°C° 0 mm 3 mps 759 mmHg 95%
    03:00 -32°C° 0 mm 3 mps 759 mmHg 95%
    04:00 -32°C° 0 mm 3 mps 759 mmHg 95%
    05:00 -33°C° 0 mm 3 mps 759 mmHg 95%
    06:00 -33°C° 0 mm 3 mps 759 mmHg 95%
    07:00 -33°C° 0 mm 3 mps 759 mmHg 94%
    08:00 -33°C° 0 mm 3 mps 758 mmHg 94%
    09:00 -33°C° 0 mm 3 mps 758 mmHg 94%
    10:00 -31°C° 0 mm 3 mps 758 mmHg 93%
    11:00 -30°C° 0 mm 3 mps 758 mmHg 92%
    12:00 -29°C° 0 mm 3 mps 758 mmHg 92%
    13:00 -27°C° 0 mm 3 mps 757 mmHg 91%
    14:00 -27°C° 0 mm 3 mps 757 mmHg 91%
    15:00 -29°C° 0 mm 4 mps 757 mmHg 91%
    16:00 -29°C° 0 mm 4 mps 757 mmHg 91%
    17:00 -29°C° 0 mm 4 mps 757 mmHg 91%
    18:00 -29°C° 0 mm 4 mps 757 mmHg 90%
    19:00 -29°C° 0 mm 4 mps 757 mmHg 90%
    20:00 -29°C° 0 mm 4 mps 756 mmHg 89%
    21:00 -29°C° 0 mm 4 mps 756 mmHg 89%
    22:00 -31°C° 0 mm 5 mps 756 mmHg 89%
    23:00 -31°C° 0 mm 5 mps 755 mmHg 89%
    Show more